Location: Anumalkud?ru
(16.4847°N, 80.6636°E)
Time: 15:19:00
(UTC+00:00)

CZ-2D R/B - Pass Details

Date: 11 April 2026
Orbit: 523 x 594 km, 98.0° (Epoch: 11 May)

Event Time Altitude Azimuth Distance (km) Brightness Sun altitude
Rises 13:26:26 0° 161° (SSE) 2,810 6.6 -9.0°
Reaches altitude 10° 13:28:37 10° 157° (SSE) 1,904 5.7 -9.5°
Maximum altitude 13:32:42 61° 77° (ENE) 661 3.4 -10.4°
Drops below altitude 10° 13:36:43 10° 357° (N) 1,874 6.2 -11.4°
Sets 13:38:51 0° 354° (N) 2,760 7.1 -11.9°
